User: anonymous   Login
Location: Lawrence
(38.9720°N, 95.2350°W)
Time: 20:58:16
(UTC-05:00)
Language:

ALOS - Orbit

View from above orbital plane
View from above orbital plane
View from above satellite
View from above satellite

Ground track
Ground track

The orbit data is extracted from the following two-line orbital elements,

1 28931U 06002A   16241.54676414  .00000225  00000-0  53464-4 0  9997
2 28931  97.8782 277.0290 0001952 114.6607 245.4799 14.62230072564692
Epoch (UTC): 28 August 2016 13:07:20
Eccentricity: 0.0001952
inclination: 97.8782°
perigee height: 684 km
apogee height: 687 km
right ascension of ascending node: 277.0290°
argument of perigee: 114.6607°
revolutions per day: 14.62230072
mean anomaly at epoch: 245.4799°
orbit number at epoch: 56469

The dashed part of the orbit path shows where the satellite is in the earth's shadow,  

DLR